Location: LDNL
(36.4545°S, 141.6685°E)
Time: 10:31:13
(UTC+10:00)

Vanguard 1 Rocket - All Passes

Search period start: 08 August 2022 00:00
Search period end: 18 August 2022 00:00
Orbit: 651 x 4225 km, 34.3° (Epoch: 07 August)

Date Brightness Start Highest point End Pass type
(mag) Time Alt. Az. Time Alt. Az. Time Alt. Az.
08 Aug - 00:20:33 10° WNW 00:27:48 67° N 00:32:28 10° E night (unlit)
08 Aug - 02:47:42 10° W 02:52:25 53° NNW 02:56:49 10° ENE night (unlit)
08 Aug - 05:13:58 10° WNW 05:16:53 16° NNW 05:20:19 10° NNE visible
08 Aug - 20:39:11 10° NNW 20:50:24 29° NNE 20:57:09 10° E visible
08 Aug - 23:07:23 10° WNW 23:16:38 57° NNE 23:21:56 10° E visible
09 Aug - 01:35:46 10° W 01:41:35 69° N 01:45:59 10° ENE night (unlit)
09 Aug - 04:02:11 10° W 04:05:55 26° NNW 04:10:01 10° NE visible
09 Aug - 19:26:52 10° NNW 19:37:57 22° NNE 19:45:16 10° ENE visible
09 Aug - 21:53:45 10° NW 22:05:08 47° NNE 22:11:20 10° E visible
10 Aug - 00:23:05 10° W 00:30:37 73° N 00:35:21 10° E night (unlit)
10 Aug - 02:50:32 10° W 02:55:10 42° NNW 02:59:24 10° NE night (unlit)
10 Aug - 18:16:16 10° N 18:24:59 15° NNE 18:31:38 10° ENE visible
10 Aug - 20:40:04 10° NW 20:53:10 38° NNE 21:00:29 10° E visible
10 Aug - 23:09:38 10° WNW 23:19:24 67° N 23:24:51 10° E visible
11 Aug - 01:38:28 10° W 01:44:23 62° NNW 01:48:46 10° ENE night (unlit)
11 Aug - 04:05:31 10° WNW 04:08:36 18° NNW 04:11:50 10° NNE visible
11 Aug - 19:26:48 10° NNW 19:40:42 29° NNE 19:49:06 10° E visible
11 Aug - 21:55:36 10° WNW 22:07:52 57° NNE 22:14:19 10° E visible
12 Aug - 00:25:40 10° W 00:33:25 74° N 00:38:13 10° E night (unlit)
12 Aug - 02:53:26 10° W 02:57:52 32° NNW 03:01:49 10° NE night (unlit)
12 Aug - 18:14:35 10° N 18:27:43 22° NNE 18:36:39 10° ENE visible
12 Aug - 20:41:19 10° NW 20:55:54 47° NNE 21:03:36 10° E visible
12 Aug - 23:12:01 10° WNW 23:22:10 74° N 23:27:44 10° E visible
13 Aug - 01:41:10 10° W 01:47:08 53° NNW 01:51:29 10° ENE night (unlit)
13 Aug - 04:09:40 10° NW 04:11:12 12° NNW 04:12:46 10° N visible
13 Aug - 17:04:48 10° N 17:14:16 15° NE 17:21:50 10° ENE daylight
13 Aug - 19:27:17 10° NW 19:43:23 38° NNE 19:52:29 10° E visible
13 Aug - 21:57:37 10° WNW 22:10:35 66° NNE 22:17:14 10° E visible
14 Aug - 00:28:15 10° W 00:36:12 71° N 00:41:03 10° ENE night (unlit)
14 Aug - 02:56:28 10° W 03:00:28 23° NNW 03:04:01 10° NNE night (unlit)
14 Aug - 18:14:03 10° NNW 18:30:21 29° NNE 18:40:37 10° E visible
14 Aug - 20:42:51 10° NW 20:58:34 57° NNE 21:06:36 10° E visible
14 Aug - 23:14:26 10° W 23:24:57 77° N 23:30:37 10° E visible
15 Aug - 01:43:54 10° W 01:49:49 43° NNW 01:54:06 10° NE night (unlit)
15 Aug - 17:02:24 10° N 17:16:52 21° NE 17:27:20 10° ENE daylight
15 Aug - 19:28:12 10° NW 19:46:01 47° NNE 19:55:37 10° E visible
15 Aug - 21:59:47 10° WNW 22:13:19 74° N 22:20:08 10° E visible
16 Aug - 00:30:49 10° W 00:38:57 64° NNW 00:43:52 10° ENE night (unlit)
16 Aug - 02:59:50 10° WNW 03:02:59 16° NW 03:05:49 10° N night (unlit)
16 Aug - 15:54:23 10° NNE 16:03:02 13° NE 16:10:28 10° ENE daylight
16 Aug - 18:14:12 10° NNW 18:32:55 37° NNE 18:44:05 10° E visible
16 Aug - 20:44:36 10° WNW 21:01:13 65° NNE 21:09:31 10° E visible
16 Aug - 23:16:54 10° W 23:27:43 77° N 23:33:29 10° E visible
17 Aug - 01:46:41 10° W 01:52:25 33° NNW 01:56:33 10° NE night (unlit)
17 Aug - 17:01:27 10° NNW 17:19:22 28° NNE 17:31:31 10° E daylight
17 Aug - 19:29:25 10° NW 19:48:36 56° NNE 19:58:37 10° E visible
17 Aug - 22:02:03 10° W 22:16:02 78° N 22:23:00 10° E visible
